[Date Prev][Date Next][Thread Prev][Thread Next][Date Index][Thread Index]

[jamsat-news:1455] jas2info #219



========================   ºÇ¿·¾ðÊó   ==============================

        Last updated ¡§fri.30MAR2001 ¡¡20¡§20¡¡(JST) #219
        
====================================================================
   
  £±¡Ë¥¢¥Þ¥Á¥å¥¢ÄÌ¿®±ÒÀ±¾ðÊ󡢣ƣϥ·¥ê¡¼¥º¤Îµ°Æ»Í×ÁÇ¡¢¥Æ¥ì¥á¥È¥ê¡¢£Ñ£Ó£Ï¤Î
¡¡¡¡¡¡¾õ¶·Åù¤ò¤Þ¤È¤á¤Æ¤ß¤Þ¤·¤¿¡¥
¡¡¡¡¡¡
¡¡¡¡¡¡£Æ£Ï¡Ý£²£¹¤Î£²£°£°£±Ç¯£³·î£³£°Æü¡Ê¶â¡Ë¤Î£±£°¡§£³£±¡Ê£Ê£Ó£Ô¡Ë¤Î¥Ñ¥¹¤Ç¤Ï
¡¡¡¡JARL¤Î¥Û¡¼¥à¥Ú¡¼¥¸¤Î¤È¤¦¤ê¥¢¥Ê¥í¥°±¿ÍѤǤ·¤¿¡£´Ñ¬¤·¤¿¥Æ¥ì¥á¥È¥ê¡¼¤È
¡¡¡¡Ê¬ÀÏ·ë²Ì¤ò·ÇºÜ¤·¤Æ¤ª¤­¤Þ¤¹.

AS22795C1   30MAR2001
10:34-10:47(JAS)
Freq.435.801-.789MHz

HI HI AE C7 88 55 00 D4 4F A7 09 42 4B 8F 82 60 91 8F B0 8B AE A9 B3 B4 AE 
HI HI AE C7 88 55 00 D4 4F A7 09 42 4A 8F 81 60 91 8F B0 B7 AD A8 B3 B4 AE 
HI HI AE C7 88 55 00 D4 4F A7 09 42 4A 8E 81 5F 91 90 B0 88 AD A8 B3 B3 AE 
HI HI AE C7 88 55 00 D4 4F A7 09 42 49 8D 81 60 92 90 B0 7A AD A8 B3 B3 AE 
HI HI AE C7 88 55 00 D4 4F A7 09 42 48 8D 81 60 92 90 B0 66 AD A8 B3 B3 AE 
HI HI AE C7 88 55 00 D4 4F A7 09 42 48 8D 80 60 92 90 B0 7D AD A8 B3 B3 AE 
HI HI AE C7 88 55 00 D4 4F A7 09 42 48 8D 80 60 92 90 B0 7D AC A8 B2 B3 AE 
HI HI AE C7 88 55 00 D4 4F A7 09 42 49 8C 80 60 92 90 B0 74 AC A8 B3 B3 AE 
HI HI AE C7 88 55 00 D4 4F A7 09 42 4A 8C 7F 60 92 90 B0 83 AC A8 B2 B3 AE 
HI HI AE C7 88 55 00 D4 4F A7 09 42 4C 8B 80 60 92 90 B0 7E AC A7 B2 B3 AE 
HI HI AE C7 88 55 00 D4 4F A7 09 42 4E 8A 80 60 92 90 B0 81 AB A7 B2 B3 AE 
HI HI AE C7 88 55 00 D4 4F A7 09 42 51 88 81 60 92 91 B0 7D AB A7 B2 B3 AE 
HI HI AE C7 88 55 00 D4 4F A7 09 42 54 86 81 60 92 91 B0 7F AB A7 B2 B3 AE 
HI HI AE C7 88 55 00 D4 4F A7 09 42 57 82 82 60 92 91 B0 6B AB A7 B2 B2 AE 
HI HI AE C7 88 55 0G D4 4F A7 09 42 5A 80 82 60 92 91 B0 6C AB A7 B2 B2 AE   
 
¡¡------------------------¡¡£Æ£Ï-£²£¹¤Îµ°Æ»Í×ÁÇ¡¡------------------------------        
 
¡¡¡¡¢£ µ°Æ»Í×ÁÇ£±¡§¡Öjamsat¡Ýkeps¡§£±£°£¸£¸¡×¤è¤ê         
¡¡¡¡¡¡¡¡¡¡¡¡¡¡¡¡¡¡¡¡SB KEPS @ AMSAT  $ORB01088.N
¡¡¡¡¡¡¡¡¡¡¡¡¡¡¡¡¡¡¡¡2Line Orbital Elements 01088.AMSAT

HR AMSAT ORBITAL ELEMENTS FOR AMATEUR SATELLITES IN NASA FORMAT
FROM WA5QGD FORT WORTH,TX March 29, 2001
SEND SUBSCRIBE/UNSUBSCRIBE TO majordomo@amsat.org ONLY
BID: ORB01088.N

¡¡DECODE 2-LINE ELSETS WITH THE FOLLOWING KEY:
¡¡1 AAAAAU 00  0  0 BBBBB.BBBBBBBB  .CCCCCCCC  00000-0  00000-0 0  DDDZ
¡¡2 AAAAA EEE.EEEE FFF.FFFF GGGGGGG HHH.HHHH III.IIII JJ.JJJJJJJJKKKKKZ
¡¡KEY: A-CATALOGNUM B-EPOCHTIME C-DECAY D-ELSETNUM E-INCLINATION F-RAAN
¡¡G-ECCENTRICITY H-ARGPERIGEE I-MNANOM J-MNMOTION K-ORBITNUM Z-CHECKSUM

FO-29
1 24278U 96046B   01087.65505212  .00000023  00000-0  60277-4 0 04097
2 24278 098.5611 323.7625 0350564 210.3925 147.6475 13.52763373227755

 ¢£ µ°Æ»Í×ÁÇ£²¡§¡Öjamsat¡Ýkeps¡§£±£°£¸£¹¡×¤è¤ê             ¡¡¡¡¡¡¡¡¡¡¡¡¡¡¡¡

¡¡¡¡¡¡¡¡¡¡¡¡¡¡¡¡SB KEPS @ AMSAT  $ORB01088.O
¡¡¡¡¡¡¡¡¡¡¡¡¡¡¡¡Orbital Elements  01088.OSCAR

HR AMSAT ORBITAL ELEMENTS FOR OSCAR SATELLITES
FROM WA5QGD FORT WORTH,TX March 29, 2001
SEND SUBSCRIBE/UNSUBSCRIBE TO majordomo@amsat.org ONLY
BID: ORB01088.O
TO ALL RADIO AMATEURS BT
¡¡
Satellite: FO-29
Catalog number: 24278
Epoch time:      01087.65505212
Element set:    0409
Inclination:      098.5611 deg
RA of node:       323.7625 deg
Eccentricity:    0.0350564
Arg of perigee:   210.3925 deg
Mean anomaly:     147.6475 deg
Mean motion:   13.52763373 rev/day
Decay rate:        2.3e-07 rev/day^2
Epoch rev:           22775
Checksum:              305

-------------------¡¡¡¡FO-29¡ÊJAS-2)¤Î¥Æ¥ì¥á¥È¥ê¤Ë´Ø¤¹¤ë¾ðÊó¡¡¡¡----------------------¡¡
¡¡
£²¡Ë¾åµ­¥Æ¥ì¥á¥È¥ê¡¼£³·î£²£¸Æü¡Ê¿å¡Ë¤Î¥Æ¥ì¥á¥È¥êºÇ½ª¹Ô¤òʬÀϤ·¤Æ¤ª¤­¤Þ¤¹.

AS22795C1   30MAR2001
10:34-10:47(JAS)
Freq.435.801-.789MHz

HI HI AE C7 88 55 0G D4 4F A7 09 42 5A 80 82 60 92 91 B0 6C AB A7 B2 B2 AE   

¥Æ¥ì¥á¥È¥ê¡¡  Æâ¡¡ÍÆ¡¡ ¡¡¡¡¡¡  ´¹»»»»ÃÍ¡¡Ã± °Ì  
£³£Ã	¼§µ¤¥»¥ó¥µ¡¼£Ú¼´=	44117.6	[nT]
£³£Ä	¼§µ¤¥»¥ó¥µ£Ø¼´	=	62745.1	[nT]
£´£Á	ÂÀÍÛÅÅÃÓȯÀ¸ÅÅή=	 1274.5	[mA]
£´£Â	£Â½¼ÊüÅÅÅÅή	=	 -118.4	[mA]
£´£Ã	£Âü»ÒÅÅ°µ	=	   15.7	[V]
£´£Ä	£ÂÃæ´Öü»ÒÅÅ°µ	=	    7.0	[V]
£µ£Á	¥Ð¥¹ÅÅ°µ	=	   17.3	[V]
£µ£Â	£Ê£Ô£ÁÁ÷¿®ÅÅÎÏ	=	  603.9	[mW]
£µ£Ã 	¹½Âβ¹ÅÙ£±	=	   15.5	[¡î]
£µ£Ä	¹½Âβ¹ÅÙ£²	=	   17.0	[¡î]
£¶£Á	¹½Âβ¹ÅÙ£³	=	   12.8	[¡î]
£¶£Â	¹½Âβ¹ÅÙ£´	=	   12.8	[¡î]
£¶£Ã	£Â¥»¥ë²¹ÅÙ	=	   14.3	[¡î]
¡¡¡¡¡¡	
 ===========================¡¡¡¡FO-29¡Ê¤Õ¤¸£³¹æ¡Ë¤ÎQSO¾ðÊóÅù¡¡======================
   
¡¡£³)[jamsat-bb:

 ===============================================================================
¡¡¡¡¡¡£´¡Ë£Ê£Á£Ò£Ì ¤Î¥Û¡¼¥à¥Ú¡¼¥¸¤Ë±¿ÍÑͽÄ꤬µ­ºÜ¤µ¤ì¤Æ¤¤¤Þ¤·¤¿¤Î¤Ç¤´¾Ò²ð¤·¤Þ¤¹¡¥
       ¡Ê http://www.jarl.or.jp/Japanese/3_Fuji/new/uy.htm ¡Ë

        ¢£ ¤Õ¤¸£³¹æ¡¿FO¡¼29/JAS-2 ¢£  
  ¡¡
¡¡¡¡¡¡¡¡¡¡¡ö¡ö¡ö¡¡±¿ÍÑͽÄê¤Ë¤Ä¤¤¤Æ¡¡¡ö¡ö¡ö

¡¡¡¡¡¡¡¡¡¡£²·î£±Æü¡¡¡Á¡¡£´·î£²Æü ¥¢¥Ê¥í¥°·Ï±¿ÍÑ

¡¡¡¡¡ö¤Ê¤ª¡¤±¿ÍÑͽÄê¤ÏÅÔ¹ç¤Ë¤è¤êÊѹ¹¤¹¤ë¤³¤È¤¬¤¢¤ê¤Þ¤¹¤Î¤Çͽ¤á¤´Î»¾µ´ê¤¤¤Þ¤¹¡£

¡¡¾È²ñÀè¡¡¡§¡¡lab@jarl.or.jp

¡¡ºÇ¿·¤Î¾ðÊó¤Ï¥Æ¥ì¥Û¥ó¥µ¡¼¥Ó¥¹¡Ê£°£³¡Ý£³£¹£´£²¡Ý£±£°£°£°¡Ë¤ò¤ªÊ¹¤­¤¯¤À¤µ¤¤¡£¡¡¡¡
¡¡°Ê¸å¤Î±¿ÍѤˤĤ­¤Þ¤·¤Æ¤ÏÊ¿À®£±£³Ç¯£´·î¾å½Ü¤Ë¤ªÃΤ餻Ãפ·¤Þ¤¹¡£¡¡¡¡¡¡¡¡
¡¡¡¡¡¡¡¡
-----------------------    £Æ£Ï¡Ý£²£°¡ÊJAS-£±£â¡ËÆ»Í×ÁÇ   -------------------------
 ¡¡£µ¡Ë
 ¡¡¢£ µ°Æ»Í×ÁÇ£± ¡§½Ðŵ¤Ï£Æ£Ï-£²£¹¡Ö¤Õ¤¸£³¹æ¡×¤ËƱ¤¸¡¥
  
FO-20
1 20480U 90013C   01087.79241034  .00000011  00000-0  90387-4 0  3002
2 20480  99.0660 171.2265 0540504 131.1184 233.7894 12.83289937521788
 
 ¡¡¢£ µ°Æ»Í×ÁÇ£² ¡§½Ðŵ¤Ï£Æ£Ï¡Ý£²£¹¡Ö¤Õ¤¸£³¹æ¡×¤ËƱ¤¸¡¥
               
Satellite: FO-20
Catalog number: 20480
Epoch time:      01087.79241034
Element set:     300
Inclination:       99.0660 deg
RA of node:       171.2265 deg
Eccentricity:    0.0540504
Arg of perigee:   131.1184 deg
Mean anomaly:     233.7894 deg
Mean motion:   12.83289937 rev/day
Decay rate:        1.1e-07 rev/day^2
Epoch rev:           52178
Checksum:              280
¡¡
¡¡--------------------------------------------------------------------------------
¡¡
¡¡        ¢£ ¤Õ¤¸£²¹æ¡¿£Æ£Ï¡Ý£²£°/JAS-1£â ¢£  ¡¡   
            
¡¡¡¡¡¡¡¡¡¡¡¡¡¡¡¡¡¡¡¡¡Ö¤Õ¤¸£²¹æ¡×¡¡¸½¶·                                                                                  
             
   JAS-1b¡Ê¤Õ¤¸£²¹æ¡Ë¤Î£Ã£×¥Æ¥ì¥á¥È¥ê¿®¹æ¤Ë¡¤£±£¹£¹£·Ç¯£±£°·î£±£²Æü£±£²»þ¡Ê£Ê£Ó£Ô¡Ë¤Î
¡¡ÆüËܾå¶õÄ̲á»þ¡¤£³·å¤Î¿ô»ú¤¬·«¤êÊÖ¤µ¤ì¤ë¤Ï¤º¤¬£³¸Ä¤ÎĹ²»¤Î·«¤êÊÖ¤·¤È¤Ê¤Ã¤Æ¤¤¤ë¤È¤¤¤¦
¡¡°Û¾ï¤¬È¯¸«¤µ¤ì¤Þ¤·¤¿¡£¤³¤ÎÉÔ¶ñ¹ç¤Ï¼¡¤ÎÄ̲á»þ¤«¤é¤Ï²óÉü¤·¤Æ¤¤¤Þ¤·¤¿¤¬£±£³Æü£±£µ»þ£²£°Ê¬¤Î
¡¡Ä̲á»þ¤ËºÆ¤Ó´Ñ¬¤µ¤ì¤Þ¤·¤¿¡£¸½ºß¤Ï£Á£°¤ÎÁ÷¿®¤¬Â³¤¤¤Æ¤¤¤Þ¤¹¡£±ÒÀ±¤Î¥¢¥Ê¥í¥°·ÏÃæ·Ñ¥â¡¼¥É
¡¡Æ°ºî¤Ï°Û¾ï¤¬Ìµ¤¯¡¤Àµ¾ï»þ¤Î¥Æ¥ì¥á¥È¥êÆâÍƤ«¤é¤Ï±ÒÀ±¤ÎÆ°ºî¤Ë°Û¾ï¤Ïǧ¤á¤é¤ì¤Þ¤»¤ó¡£½¾¤Ã¤Æ¡¤
¡¡Ä¾¤Á¤Ë±ÒÀ±¤Î¥ß¥Ã¥·¥ç¥ó¤Ë±Æ¶Á¤¹¤ë¤³¤È¤Ï̵¤¤¤ÈͽÁÛ¤µ¤ì¤Þ¤¹¤Î¤Ç¡¤ÅöÌ̤ϥ¢¥Ê¥í¥°·ÏÃæ·Ñ
¡¡¥â¡¼¥É¤ò·Ñ³¤·¤Þ¤¹¡£±ÒÀ±¤Ï´û¤ËÂǤÁ¾å¤²¤Æ¤«¤é£·Ç¯£¸¥ö·î¤ò·Ð¤Æ¤ª¤ê¤Þ¤¹¤Î¤Ç¡¤º£¸å¤Ï´Æ»ë¤ò
¡¡¶¯²½¤¹¤ëͽÄê¤Ç¤¹¡£¥¢¥Þ¥Á¥å¥¢³Æ°Ì¤Î¥ì¥Ý¡¼¥È¤ò¤ªÂÔ¤Á¤·¤Þ¤¹¡£
¡¡-------------------------------------------------------------------------------- 
¡¡¡¡1997ǯ10·î14Æü¡¡00»þ35ʬ ³Îǧ¤Î¥Æ¥ì¥á¥È¥ê²» 151 KB ¡Ê£Á£°¡Ë 
¡¡¡¡1997ǯ10·î14Æü¡¡11»þ10ʬ ³Îǧ¤Î¥Æ¥ì¥á¥È¥ê²» 216 KB ¡Ê°Û¾ï¥­¡¼¥¤¥ó¥°¡Ë 

  °Ê¾å¡¡£Ê£Á£Ò£Ì¤Î¥Û¡Ý¥à¥Ú¡¼¥¸¤Î http://www.jarl.or.jp/Japanese/3_Fuji/new/fuji.htm

===================== FO-20¡¡¤Õ¤¸£²¹æ¡¡¤Î¥Æ¥ì¥á¥È¥ê´Ñ¬·ë²Ì¡¡====================

   £±£²·î£²£²Æü¡Ê¶â¡Ë¤Î£±£²¡§£²£±¡ÊJST)¤Î¥Ñ¥¹¤Î´Ñ¬·ë²Ì¤Ç¤Ï°ÊÁ°´Ñ¬¤·¤¿
¡¡Ã±°ì¼þÇÈ¿ô¤Î¥É¥Ã¥×¥é¡¼¸ú²Ì¤Ç¼þÇÈ¿ô¤¬¤º¤ì¤Æ¤¤¤¯¤Î¤ß¤Î¾õÂÖ¤ËÌá¤Ã¤Æ¤ª¤ê¤Þ¤·¤¿¡£
                                         
   =============   JAS-2 ¡Ê¤Õ¤¸£³¹æ¡Ë¤È¸½ºß¤Þ¤Ç¤Î¾ðÊó   ===========
  
  £Á¡¥ÅÅÏäˤè¤ë¤Õ¤¸£³¹æ¤Î±¿ÍѾðÊó
      ¼ÒÃÄË¡¿ÍÆüËÜ¥¢¥Þ¥Á¥å¥¢Ï¢ÌÁ¤Ë¤è¤ë¥µ¡¼¥Ó¥¹
           £Ô£Å£Ì ¡¥   £°£³¡Ý £³£¹£´£² ¡Ý £±£°£°£°
  £Â¡¥¥¢¥Þ¥Á¥å¥¢ÌµÀþ£Æ£Á£Ø¥µ¡¼¥Ó¥¹
      £Ê£Á£Ò£Ì¤Ë¤è¤ë¤Õ¤¸£³¹æ¤Îµ°Æ»¾ðÊó¡Ê¥ª¡¼¥Ó¥Ã¥È¥«¥ì¥ó¥À¡¼¡Ë
         £Æ£Á£Ø £Î£ï¡¥  £°£³¡Ý £³£²£³£³ ¡Ý£°£°£µ£µ
  £Ã¡¥£×£×£×¥Ö¥é¥¦¥¶¤Ç¾ðÊó¤ò´Êñ¤Ë¸«¤ì¤ë¿Í¤Î¤¿¤á¤Ë£Ê£Á£Ó¡Ý£²
     ¤Õ¤¸£³¹æ¤Î±ÒÀ±¤È¤·¤Æ¤Î±¿ÍѤµ¤ì¤ë¤Þ¤Ç¤Î̾Á°¡Ë¤Î³µÍס¢ÂǤÁ¾å¤²
     ¤Þ¤Ç¤Î¾õ¶·¡¢±¿ÍÑÃæ¤Ë¤ª¤±¤ë¾õ¶·¤òÀâÌÀ¤·¤¿¥Û¡¼¥à¥Ú¡¼¥¸¤ò¾Ò²ð¤·
     ¤Æ¤ª¤­¤Þ¤¹¡¥
    ­¡ ¼ÒÃÄË¡¿ÍÆüËÜ¥¢¥Þ¥Á¥å¥¢ÌµÀþÏ¢ÌÁ¡Ê£Ê£Á£Ò£Ì¡Ë¤Î¥Û¡¼¥à¥Ú¡¼¥¸

          http://www.jarl.or.jp/Japanese/3_Fuji/jasmenu.htm
 
    ­¢ ±§Ã賫ȯ»ö¶ÈÃġʣΣÁ£Ó£Ä£Á¡Ë¥Û¡¼¥à¥Ú¡¼¥¸ 
          http://www.nasda.go.jp/
         ÂǾ夲±ÒÀ±¡¡¡§Ãϵå´Ñ¬¥×¥é¥Ã¥È¥Õ¥©¡¼¥àµ»½Ñ±ÒÀ±¡ÊADEOS¡Ë 
                       ¥¢¥Þ¥Á¥å¥¢±ÒÀ±£³¹æ(JAS-2)
          http://yyy.tksc.nasda.go.jp/Home/Press/Press-j/jas-2_j.html        

  £Ä¡¥£Ê£Á£Í£Ó£Á£Ô¤Ë¤è¤ëµ°Æ»¾ðÊó¤Î³èÍÑ
        JAMSAT¤Î¥Û¡¼¥à¥Ú¡¼¥¸¤Þ¤¿¤Ïjamsat¡Ýkeps¤Îµ°Æ»Í×ÁǤè¤ê
      ±ÒÀ±¤Îµ°Æ»¾ðÊó¤òÆÀ¤ë¡¥
     £Ê£Á£Í£Ó£Á£Ô¥Û¡¼¥à¥Ú¡¼¥¸
               £Õ£Ò£Ì    http://www.jamsat.or.jp
       ¾åµ­¥Û¡¼¥à¥Ú¡¼¥¸¤Ç¤Ï³ÆÃϤǹԤï¤ì¤ë¥¢¥Þ¥Á¥å¥¢ÄÌ¿®±ÒÀ±¤Ë´Ø¤¹¤ë
      ¥ß¥å¡¼¥Æ¥£¥ó¥°¤Î¤ªÃΤ餻¤äÀ¤³¦¤Î¥¢¥Þ¥Á¥å¥¢±ÒÀ±¤Ë´Ø¤¹¤ë¾ðÊó¤¬
      ËþºÜ¤µ¤ì¤Æ¤¤¤Þ¤¹¡¥
¡¡========================================================================  
¡¡    £Ê£Á£Í£Ó£Á£Ô¤Î¥á¥ó¥Ð¡¼¤Î¤´¶¨ÎϤˤè¤ê£Ê£È£¶£Í£Í£Å¡Ê¹â»³ ½¨Â¤¡Ë¤¬
    ¼¹É®¡¦ÊÔ½¸¤òôÅö¤·¤Æ¤ª¤ê¤Þ¤¹¡¥¤´»ØŦ¤Î°Õ¸«¡¢µ¿Ìä¤ä¤³¤Î¤è¤¦¤Ë¤·¤¿¤é
    ¤È¤¤¤¦¥¢¥¤¥Ç¥¢¤¬¤¢¤ê¤Þ¤·¤¿¤é¾®¤µ¤Ê¤³¤È¤Ç¤â¤«¤Þ¤¤¤Þ¤»¤ó¤Î¤Çµ¤·Ú¤Ë²¼
    µ­¥¢¥É¥ì¥¹¤Þ¤Ç¤´Ï¢Íí¤¯¤À¤µ¤¤¡¥£ê£á£í£ó£á£ô¡Ý£î£å£÷£ó¤«¤é£ê£á£ó£²
    £é£î£æ£ï¤Ø¤ÎžºÜ¤ò£Ê£È£´£Ð£È£×¶Éºä°æ¤µ¤ó¤ËôÅö¤·¤Æ夤¤Æ¤ª¤ê¤Þ¤¹¡¥  
                  E-mail : jh6mme@jamsat.or.jp : jh4phw@jamsat.or.jp
 ===============================   £Å£Î£Ä  ===============================